This is the latest recevied weather packets stored in our database for station/object AG7BI. If no packets are shown the sender has not sent any weather packets the latest 10 day(s).
| Time | Temp. | Humidity | Pressure | Rain* | Wind** | Luminosity | Snow |
|---|---|---|---|---|---|---|---|
| 1777929052 | 21.11° C | 53% | 1010.8 hPa | 0 mm | - | - | - |
| 1777928752 | 21.11° C | 55% | 1010.6 hPa | 0 mm | - | - | - |
| 1777928452 | 20.56° C | 55% | 1010.8 hPa | 0 mm | - | - | - |
| 1777928152 | 20.56° C | 55% | 1010.8 hPa | 0 mm | - | - | - |
| 1777927852 | 20.56° C | 50% | 1010.9 hPa | 0 mm | - | - | - |
| 1777927552 | 20.56° C | 50% | 1010.7 hPa | 0 mm | - | - | - |
| 1777927252 | 20.56° C | 53% | 1010.8 hPa | 0 mm | - | - | - |
| 1777926952 | 20.56° C | 50% | 1010.8 hPa | 0 mm | - | - | - |
| 1777926652 | 20.56° C | 51% | 1010.8 hPa | 0 mm | - | - | - |
| 1777926352 | 20.56° C | 52% | 1010.6 hPa | 0 mm | - | - | - |
| 1777926052 | 21.11° C | 46% | 1010.7 hPa | 0 mm | - | - | - |
| 1777925752 | 21.11° C | 45% | 1010.8 hPa | 0 mm | - | - | - |
| 1777925452 | 21.67° C | 51% | 1010.9 hPa | 0 mm | - | - | - |
| 1777925152 | 22.22° C | 50% | 1011 hPa | 0 mm | - | - | - |
| 1777924852 | 22.22° C | 48% | 1011.1 hPa | 0 mm | - | - | - |
| 1777924552 | 22.78° C | 47% | 1011 hPa | 0 mm | - | - | - |
| 1777924252 | 22.22° C | 51% | 1010.9 hPa | 0 mm | - | - | - |
| 1777923952 | 23.33° C | 45% | 1010.8 hPa | 0 mm | - | - | - |
| 1777923652 | 22.22° C | 42% | 1010.7 hPa | 0 mm | - | - | - |
| 1777923352 | 22.78° C | 48% | 1010.7 hPa | 0 mm | - | - | - |
| 1777923052 | 23.33° C | 44% | 1010.7 hPa | 0 mm | - | - | - |
| 1777922752 | 22.22° C | 50% | 1010.9 hPa | 0 mm | - | - | - |
| 1777922452 | 22.22° C | 52% | 1010.9 hPa | 0 mm | - | - | - |
| 1777922152 | 22.22° C | 47% | 1011 hPa | 0 mm | - | - | - |
| 1777921852 | 21.67° C | 56% | 1011.1 hPa | 0 mm | - | - | - |
* Rain latest hour (hover to see other rain measurements)
** Current wind speed in m/s (hover to see current wind gust speed)